| time (UTC) | temp F | wind direction | speed knots | gust knots | rain 1hr in | rain 24hr in | rain mn in | humidity % | barometer mb |
| 20260510034547 | 52 | 0 | 0.0 | 2.6 | 0.00 | 0.34 | 0.34 | 96 | 1010.6 |
| 20260510033055 | 53 | 153 | 0.9 | 2.6 | 0.00 | 0.34 | 0.34 | 96 | 1010.5 |
| 20260510031549 | 52 | 0 | 0.0 | 0.0 | 0.00 | 0.34 | 0.34 | 96 | 1010.4 |
| 20260510030045 | 52 | 0 | 0.0 | 0.0 | 0.00 | 0.34 | 0.34 | 96 | 1010.5 |
| 20260510024549 | 51 | 0 | 0.0 | 1.7 | 0.00 | 0.34 | 0.34 | 95 | 1010.5 |
| 20260510023044 | 51 | 0 | 0.0 | 0.0 | 0.00 | 0.34 | 0.34 | 94 | 1010.7 |
| 20260510021637 | 52 | 92 | 0.9 | 1.7 | 0.00 | 0.34 | 0.34 | 94 | 1010.6 |
| 20260510020043 | 52 | 0 | 0.0 | 0.0 | 0.00 | 0.34 | 0.34 | 94 | 1010.6 |
| 20260510014556 | 52 | 0 | 0.0 | 0.0 | 0.00 | 0.34 | 0.34 | 94 | 1010.5 |
| 20260510013057 | 52 | 0 | 0.0 | 0.0 | 0.00 | 0.34 | 0.34 | 94 | 1010.3 |
| 20260510011543 | 52 | 0 | 0.0 | 0.0 | 0.00 | 0.34 | 0.34 | 94 | 1010.2 |
| 20260510010056 | 53 | 0 | 0.0 | 0.0 | 0.00 | 0.34 | 0.34 | 94 | 1010.2 |
| 20260510004546 | 53 | 0 | 0.0 | 0.0 | 0.00 | 0.34 | 0.34 | 94 | 1010.2 |
| 20260510003044 | 53 | 0 | 0.0 | 0.0 | 0.00 | 0.34 | 0.34 | 94 | 1010.1 |
| 20260510001546 | 54 | 0 | 0.0 | 0.0 | 0.00 | 0.34 | 0.34 | 94 | 1010.1 |
| 20260510000050 | 54 | 0 | 0.0 | 0.0 | 0.00 | 0.34 | 0.34 | 94 | 1010.0 |
| 20260509234546 | 55 | 0 | 0.0 | 0.0 | 0.00 | 0.34 | 0.34 | 94 | 1010.0 |
| 20260509233050 | 55 | 0 | 0.0 | 0.0 | 0.00 | 0.34 | 0.34 | 94 | 1010.0 |
| 20260509231558 | 55 | 0 | 0.0 | 1.7 | 0.04 | 0.34 | 0.34 | 94 | 1010.2 |
| 20260509230048 | 55 | 0 | 0.9 | 4.3 | 0.07 | 0.34 | 0.34 | 94 | 1010.3 |
| 20260509224541 | 55 | 175 | 0.9 | 3.5 | 0.10 | 0.34 | 0.34 | 93 | 1010.4 |
| 20260509223041 | 55 | 161 | 1.7 | 10.4 | 0.12 | 0.34 | 0.34 | 93 | 1010.1 |
| 20260509221543 | 56 | 158 | 0.0 | 3.5 | 0.08 | 0.30 | 0.30 | 93 | 1011.1 |
| 20260509220047 | 56 | 11 | 3.5 | 7.8 | 0.05 | 0.27 | 0.27 | 93 | 1010.3 |
| 20260509214545 | 56 | 0 | 0.9 | 3.5 | 0.02 | 0.23 | 0.23 | 93 | 1011.2 |
| 20260509213104 | 56 | 146 | 1.7 | 3.5 | 0.02 | 0.22 | 0.22 | 92 | 1010.4 |
| 20260509211546 | 57 | 0 | 0.0 | 0.0 | 0.05 | 0.22 | 0.22 | 92 | 1010.9 |
| 20260509210049 | 57 | 0 | 0.0 | 0.0 | 0.06 | 0.22 | 0.22 | 92 | 1010.8 |
| 20260509204542 | 57 | 0 | 0.0 | 0.0 | 0.05 | 0.21 | 0.21 | 92 | 1011.1 |
| 20260509203045 | 56 | 0 | 0.0 | 1.7 | 0.04 | 0.20 | 0.20 | 91 | 1010.9 |
| 20260509201548 | 56 | 0 | 0.0 | 0.0 | 0.02 | 0.16 | 0.16 | 91 | 1011.1 |
| 20260509200047 | 56 | 0 | 0.0 | 4.3 | 0.06 | 0.16 | 0.16 | 91 | 1011.2 |
| 20260509194556 | 56 | 180 | 2.6 | 8.7 | 0.14 | 0.16 | 0.16 | 90 | 1011.2 |
| 20260509193047 | 57 | 165 | 0.9 | 2.6 | 0.16 | 0.16 | 0.16 | 90 | 1010.0 |
| 20260509191557 | 57 | 0 | 0.9 | 2.6 | 0.14 | 0.14 | 0.14 | 90 | 1011.5 |
| 20260509190050 | 58 | 343 | 1.7 | 5.2 | 0.09 | 0.09 | 0.09 | 88 | 1011.6 |
| 20260509184541 | 58 | 309 | 0.0 | 4.3 | 0.02 | 0.02 | 0.02 | 88 | 1011.5 |
| 20260509183054 | 58 | 15 | 1.7 | 3.5 | 0.00 | 0.00 | 0.00 | 87 | 1010.9 |
| 20260509181545 | 58 | 246 | 0.9 | 3.5 | 0.00 | 0.00 | 0.00 | 86 | 1011.1 |
| 20260509180053 | 57 | 141 | 1.7 | 5.2 | 0.00 | 0.00 | 0.00 | 86 | 1010.6 |
| 20260509174545 | 56 | 184 | 1.7 | 7.0 | 0.00 | 0.00 | 0.00 | 85 | 1010.6 |
| 20260509173055 | 56 | 192 | 4.3 | 8.7 | 0.00 | 0.00 | 0.00 | 82 | 1010.6 |
| 20260509171550 | 58 | 152 | 3.5 | 6.1 | 0.00 | 0.00 | 0.00 | 78 | 1010.6 |
| 20260509170047 | 60 | 152 | 2.6 | 6.1 | 0.00 | 0.00 | 0.00 | 78 | 1010.7 |
| 20260509164546 | 59 | 156 | 1.7 | 6.1 | 0.00 | 0.00 | 0.00 | 81 | 1010.7 |
| 20260509163044 | 59 | 143 | 1.7 | 4.3 | 0.00 | 0.00 | 0.00 | 79 | 1011.0 |
| 20260509161553 | 59 | 198 | 0.9 | 4.3 | 0.00 | 0.00 | 0.00 | 79 | 1011.3 |
| 20260509160042 | 58 | 183 | 0.9 | 4.3 | 0.00 | 0.00 | 0.00 | 80 | 1011.5 |
| 20260509154548 | 59 | 171 | 1.7 | 5.2 | 0.00 | 0.00 | 0.00 | 79 | 1011.7 |
| 20260509153054 | 59 | 202 | 0.9 | 3.5 | 0.00 | 0.00 | 0.00 | 79 | 1011.6 |
| 20260509151541 | 58 | 163 | 0.9 | 4.3 | 0.00 | 0.00 | 0.00 | 79 | 1011.6 |
| 20260509150044 | 58 | 199 | 0.9 | 3.5 | 0.00 | 0.00 | 0.00 | 80 | 1011.8 |
| 20260509144549 | 57 | 147 | 1.7 | 4.3 | 0.00 | 0.00 | 0.00 | 82 | 1011.7 |
| 20260509143043 | 57 | 151 | 1.7 | 4.3 | 0.00 | 0.00 | 0.00 | 83 | 1011.9 |
| 20260509141544 | 56 | 145 | 1.7 | 6.1 | 0.00 | 0.00 | 0.00 | 85 | 1011.6 |
| 20260509140055 | 55 | 148 | 2.6 | 4.3 | 0.00 | 0.00 | 0.00 | 85 | 1011.9 |
| 20260509134541 | 55 | 190 | 0.9 | 5.2 | 0.00 | 0.00 | 0.00 | 87 | 1011.9 |
| 20260509133048 | 54 | 113 | 2.6 | 7.0 | 0.00 | 0.00 | 0.00 | 88 | 1011.8 |
| 20260509131550 | 54 | 154 | 0.9 | 3.5 | 0.00 | 0.00 | 0.00 | 90 | 1012.1 |
| 20260509130046 | 53 | 164 | 0.9 | 4.3 | 0.00 | 0.00 | 0.00 | 90 | 1012.3 |
| 20260509124551 | 53 | 0 | 0.0 | 3.5 | 0.00 | 0.00 | 0.00 | 90 | 1012.4 |
| 20260509123046 | 53 | 125 | 1.7 | 4.3 | 0.00 | 0.00 | 0.00 | 90 | 1012.0 |
| 20260509121550 | 53 | 0 | 0.9 | 6.1 | 0.00 | 0.00 | 0.00 | 90 | 1012.5 |
| 20260509120046 | 53 | 146 | 1.7 | 3.5 | 0.00 | 0.00 | 0.00 | 90 | 1012.6 |
| 20260509114542 | 53 | 0 | 0.0 | 1.7 | 0.00 | 0.00 | 0.00 | 90 | 1012.5 |
| 20260509113048 | 52 | 164 | 0.0 | 3.5 | 0.00 | 0.00 | 0.00 | 89 | 1012.6 |
| 20260509111551 | 52 | 136 | 0.9 | 3.5 | 0.00 | 0.00 | 0.00 | 89 | 1012.5 |
| 20260509110046 | 52 | 138 | 2.6 | 4.3 | 0.00 | 0.00 | 0.00 | 89 | 1012.4 |
| 20260509104546 | 52 | 137 | 0.9 | 4.3 | 0.00 | 0.00 | 0.00 | 89 | 1012.4 |
| 20260509103051 | 52 | 151 | 0.9 | 3.5 | 0.00 | 0.00 | 0.00 | 88 | 1012.3 |
| 20260509101547 | 52 | 0 | 0.0 | 1.7 | 0.00 | 0.00 | 0.00 | 88 | 1012.1 |
| 20260509100048 | 52 | 140 | 0.9 | 2.6 | 0.00 | 0.00 | 0.00 | 88 | 1011.9 |
| 20260509094557 | 51 | 0 | 0.0 | 0.0 | 0.00 | 0.02 | 0.00 | 87 | 1012.0 |
| 20260509093048 | 51 | 0 | 0.0 | 0.0 | 0.00 | 0.02 | 0.00 | 87 | 1011.9 |
| 20260509091553 | 52 | 0 | 0.0 | 0.9 | 0.00 | 0.02 | 0.00 | 87 | 1011.8 |
| 20260509090054 | 52 | 0 | 0.0 | 1.7 | 0.00 | 0.02 | 0.00 | 87 | 1011.8 |
| 20260509084558 | 52 | 0 | 0.0 | 1.7 | 0.00 | 0.02 | 0.00 | 87 | 1011.9 |
| 20260509083052 | 52 | 149 | 0.9 | 2.6 | 0.00 | 0.02 | 0.00 | 87 | 1012.1 |
| 20260509081544 | 52 | 0 | 0.0 | 0.9 | 0.00 | 0.02 | 0.00 | 87 | 1012.4 |
| 20260509080048 | 52 | 0 | 0.0 | 0.9 | 0.00 | 0.02 | 0.00 | 86 | 1012.3 |
| 20260509074606 | 52 | 0 | 0.0 | 0.0 | 0.00 | 0.02 | 0.00 | 86 | 1012.1 |
| 20260509073101 | 52 | 0 | 0.0 | 0.0 | 0.00 | 0.02 | 0.00 | 85 | 1012.0 |
| 20260509071545 | 52 | 0 | 0.0 | 2.6 | 0.00 | 0.02 | 0.00 | 85 | 1011.9 |
| 20260509070048 | 52 | 0 | 0.9 | 3.5 | 0.00 | 0.02 | 0.00 | 85 | 1011.9 |
| 20260509064547 | 52 | 185 | 2.6 | 4.3 | 0.00 | 0.02 | 0.00 | 85 | 1012.1 |
| 20260509063055 | 52 | 166 | 0.0 | 1.7 | 0.00 | 0.02 | 0.00 | 84 | 1012.2 |
| 20260509061548 | 52 | 0 | 0.0 | 1.7 | 0.00 | 0.02 | 0.00 | 83 | 1012.5 |
| 20260509060101 | 52 | 0 | 0.0 | 0.0 | 0.00 | 0.02 | 0.00 | 82 | 1012.5 |
| 20260509054548 | 52 | 0 | 0.0 | 0.9 | 0.00 | 0.02 | 0.00 | 82 | 1012.6 |
| 20260509053057 | 52 | 27 | 0.9 | 2.6 | 0.00 | 0.02 | 0.00 | 80 | 1012.7 |
| 20260509051548 | 51 | 0 | 0.0 | 1.7 | 0.00 | 0.02 | 0.00 | 80 | 1012.8 |
| 20260509050053 | 51 | 350 | 0.9 | 1.7 | 0.00 | 0.02 | 0.00 | 79 | 1012.7 |
| 20260509044547 | 52 | 349 | 0.0 | 1.7 | 0.00 | 0.02 | 0.00 | 78 | 1012.5 |
| 20260509043051 | 52 | 0 | 0.0 | 1.7 | 0.00 | 0.02 | 0.00 | 77 | 1012.5 |
| 20260509041556 | 53 | 0 | 0.0 | 0.9 | 0.00 | 0.02 | 0.00 | 76 | 1012.4 |
| 20260509040057 | 54 | 0 | 0.0 | 0.9 | 0.00 | 0.02 | 0.00 | 74 | 1012.6 |